Lawrence, MA

2:20 PM EDT on May 25, 2017 (GMT -0400)
Lawrence Municipal

Weather History for KLWM - November, 2013

Change the Weather History Date:

Saturday, November 23, 2013

  Actual Average Record
Temperature  
Mean Temperature 38 °F -  
Max Temperature 46 °F 45 °F 72 °F (1931)
Min Temperature 30 °F 29 °F 13 °F (1929)
Degree Days  
Heating Degree Days 27    
Moisture  
Dew Point 24 °F    
Average Humidity 56    
Maximum Humidity 90    
Minimum Humidity 32    
Precipitation  
Precipitation 0.00 in - - ()
Sea Level Pressure  
Sea Level Pressure 29.84 in    
Wind  
Wind Speed 10 mph (West)    
Max Wind Speed 18 mph    
Max Gust Speed 32 mph    
Visibility 9 miles    
Events Rain    
Averages and records for this station are not official NWS values.
T = Trace of Precipitation, MM = Missing Value Source: NWS Daily Summary

Daily Weather History Graph

Daily Weather History Graph

Search for Another Location

Airport or City:

Trip Planner

Search our weather history database for the weather conditions in past years. The results will help you decide how hot, cold, wet, or windy it might be!

Date:

Astronomy

Nov. 23, 2013 Rise Set
Actual Time 6:46 AM EST 4:15 PM EST
Civil Twilight 6:15 AM EST 4:46 PM EST
Nautical Twilight 5:40 AM EST 5:21 PM EST
Astronomical Twilight 5:06 AM EST 5:54 PM EST
Moon 9:44 PM EST (11/23) 10:58 AM EST (11/23)
Length of Visible Light 10h 31m
Length of Day
9h 29m
Waning Gibbous, 70% of the Moon is Illuminated
Nov 23
Waning Gibbous
Nov 25
Last Quarter
Dec 2
New
Dec 9
First Quarter
Dec 17
Full

Hourly Weather History & Observations

Time (EST) Temp. Windchill Dew Point Humidity Pressure Visibility Wind Dir Wind Speed Gust Speed Precip Events Conditions
12:12 AM 44.6 °F 43.1 °F 41.0 °F 87% 29.81 in 2.0 mi SSW 3.5 mph - N/A   Overcast
12:29 AM 44.6 °F 42.2 °F 41.0 °F 87% 29.81 in 3.0 mi SSW 4.6 mph - 0.00 in Rain Light Rain
12:54 AM 45.0 °F 43.5 °F 42.1 °F 90% 29.81 in 4.0 mi SSW 3.5 mph - 0.00 in   Overcast
1:54 AM 45.0 °F 41.8 °F 42.1 °F 90% 29.80 in 6.0 mi SW 5.8 mph - N/A   Mostly Cloudy
2:54 AM 46.9 °F - 41.0 °F 80% 29.79 in 10.0 mi West 6.9 mph - N/A   Scattered Clouds
3:54 AM 46.0 °F 39.9 °F 37.9 °F 73% 29.80 in 10.0 mi West 13.8 mph 19.6 mph N/A   Clear
4:54 AM 44.1 °F 36.8 °F 32.0 °F 63% 29.82 in 10.0 mi West 16.1 mph 23.0 mph N/A   Clear
5:54 AM 42.1 °F 36.1 °F 28.9 °F 60% 29.85 in 10.0 mi WNW 10.4 mph 21.9 mph N/A   Clear
6:54 AM 41.0 °F 32.8 °F 26.1 °F 55% 29.88 in 10.0 mi WNW 16.1 mph 25.3 mph N/A   Clear
7:54 AM 39.9 °F 31.8 °F 25.0 °F 55% 29.89 in 10.0 mi WNW 15.0 mph 20.7 mph N/A   Partly Cloudy
8:54 AM 41.0 °F 33.1 °F 25.0 °F 53% 29.91 in 10.0 mi WNW 15.0 mph 26.5 mph N/A   Clear
9:54 AM 41.0 °F 33.5 °F 21.9 °F 47% 29.92 in 10.0 mi WNW 13.8 mph 24.2 mph N/A   Clear
10:54 AM 42.1 °F 33.6 °F 19.9 °F 41% 29.90 in 10.0 mi West 18.4 mph 25.3 mph N/A   Clear
11:54 AM 43.0 °F 36.4 °F 19.0 °F 38% 29.88 in 10.0 mi West 12.7 mph 19.6 mph N/A   Clear
12:54 PM 42.1 °F 35.2 °F 16.0 °F 35% 29.86 in 10.0 mi West 12.7 mph 20.7 mph N/A   Clear
1:54 PM 42.1 °F 34.9 °F 15.1 °F 34% 29.84 in 10.0 mi WNW 13.8 mph 23.0 mph N/A   Clear
2:54 PM 39.9 °F 31.1 °F 16.0 °F 38% 29.84 in 10.0 mi West 17.3 mph 21.9 mph N/A   Clear
3:54 PM 37.9 °F 30.0 °F 15.1 °F 39% 29.83 in 10.0 mi WSW 12.7 mph 21.9 mph N/A   Clear
4:54 PM 36.0 °F 26.7 °F 16.0 °F 44% 29.83 in 10.0 mi WSW 15.0 mph 23.0 mph N/A   Clear
5:54 PM 35.1 °F 28.6 °F 16.0 °F 46% 29.82 in 10.0 mi WSW 8.1 mph - N/A   Clear
6:54 PM 34.0 °F 27.2 °F 15.1 °F 46% 29.81 in 10.0 mi SW 8.1 mph - N/A   Clear
7:54 PM 36.0 °F 26.7 °F 17.1 °F 46% 29.81 in 10.0 mi West 15.0 mph 32.2 mph N/A   Clear
8:54 PM 33.1 °F 22.6 °F 21.0 °F 61% 29.81 in 10.0 mi West 16.1 mph 21.9 mph 0.00 in   Mostly Cloudy
9:54 PM 30.9 °F 22.2 °F 21.9 °F 69% 29.80 in 10.0 mi WSW 10.4 mph - N/A   Clear
10:54 PM 30.9 °F 21.7 °F 16.0 °F 54% 29.81 in 10.0 mi West 11.5 mph - N/A   Clear
11:54 PM 30.9 °F 21.2 °F 3.9 °F 32% 29.80 in 10.0 mi West 12.7 mph 21.9 mph N/A   Clear